Погода в Бобруйске

Погода в Бобруйске : погода сейчас, прогноз погоды и архив. Всё, что Вы хотите узнать о погоде в Бобруйске!

Хотите узнать прогноз погоды в Бобруйске? Тогда Вам сюда: Погода в Бобруйске

Поиск расширенной информации на нашем сайте:

Другие новости

Новости СМИ2

Главная страница сайта

Новости сайта

03.07.2017

Напоминаем, что на нашем специализированном сайте Метеоцентр.Азия вы можете получить высокодетализированные автоматические прогнозы погоды по пунктам России, СНГ и мира в авиационном формате (включающие направление и скорость ветра, видимость, явления погоды, количество и форму облачности, нижнюю и верхнюю границу облачности).

Рекомендуем: для вашего бизнеса покупка офиса в бц Ринко Плаза Тимура Фрунзе ул., 24

Погода в Бобруйске - сегодня

Время (UTC), дата Ветер
(°,м/с) 
Видим.   Явления Облачность Т
(°С)
Тd
(°С)
f(%) Тe
(°С)
Pmin
(гПа)
dP
(гПа)
Po
(мм)
O2
(г/м3)
Тmin Tmax R s Состояние
почвы
18 14.08.18 090 (В) 10 км    3/0 средняя 
[Ac trans]
+22.5 +14.6 61 +31  1011  0.1  745  274    +28.9       
21 14.08.18 130 (ЮВ) 10 км    ясно 
+21.3 +15.6 70 +31  1009.8  -1.2  744  275           
00 15.08.18 тихо ()   10 км    ясно 
+17.2 +14.8 86 +26  1010  -0.1  744  279           
03 15.08.18 240 (ЮЗ) 10 км    8/0 средняя 
[Ac trans]
+18.4 +15.8 85 +30  1010  0.1  744  277           
06 15.08.18 280 (З) 10 км    9/0 средняя 
[Ac trans]
+20.4 +16.6 79 +32  1010.6  0.7  744  275  +17.2         
09 15.08.18 280 (З) 20000 м    9/0 средняя 
[Ac trans]
+21.9 +16.2 70 +33  1012.2  1.7  746  275           
12 15.08.18 270 (З) 20000 м    9/0 средняя 
[Ac und]
+24.5 +15.7 58 +35  1012.7  0.6  746  273           
15 15.08.18 230 (ЮЗ) 20000 м    9/0 средняя 
[Ac trans]
+23.5 +15 59 +32  1013  0.3  746  274           
18 15.08.18 тихо ()   15000 м    9/0 средняя, верхняя 
[Ac trans|Ci fib]
+20.1 +15.3 74 +29  1014.1  0.8  747  277    +25.3       
21 15.08.18 230 (ЮЗ) 10 км    8/0 верхняя 
[Ci fib]
+18.1 +15.9 87 +29  1015  0.8  748  279           
00 16.08.18 250 (З) 10 км    ясно 
+16.2 +15.1 93 +27  1015.4  0.3  748  281           
03 16.08.18 240 (ЮЗ) 10 км  туман поземный  4/0 верхняя 
[Ci fib]
+14.8 +14.2 96 +23  1016.4  0.8  748  283           
06 16.08.18 280 (З) 10 км    9/0 средняя 
[Ac trans]
+18.4 +17.1 92 +32  1017.3  1.1  749  279  +14.1         
09 16.08.18 310 (СЗ) 20000 м    8/8 840 м 
[Cu med, cong]
+22.4 +15.7 66 +32  1017.6  0.6  750  276           
12 16.08.18 280 (З) 20000 м    5/5 600 м 
[Cu med, cong]
+24.9 +14.4 52 +33  1017.9  0.4  750  274           
15 16.08.18 320 (СЗ) 20000 м    3/3 600 м 
[Cu hum]
+23.5 +14.5 57 +31  1018.1  0.2  750  275           
18 16.08.18 тихо ()   15000 м    ясно 
+17.8 +14.5 81 +26  1018.9  0.4  750  281    +25.2       
21 16.08.18 тихо ()   10 км  туман поземный  ясно 
+13.9 +13.1 95 +19  1019.8  0.7  751  285           
00 17.08.18 тихо ()   10 км  туман поземный  ясно 
+12.2 +11.6 96 +16  1020.3  0.3  751  287           
03 17.08.18 тихо ()   3200 м  дымка  ясно 
+10.9 +10.4 97 +13  1020.8  0.4  751  289           
06 17.08.18 040 (СВ) 7000 м  дымка{туман}  ясно 
+16.7 +16.2 97 +29  1020.6  0.2  752  282  +9.7         
09 17.08.18 070 (В) 20000 м    4/4 600 м 
[Cu med, cong]
+23 +17 69 +35  1020.4  0.2  752  276           
12 17.08.18 050 (СВ) 20000 м    4/4 600 м 
[Cu med, cong]
+25.4 +15.7 55 +35  1019.5  -0.7  751  274           
15 17.08.18 060 (СВ) 20000 м    3/3 600 м 
[Cu hum]
+26.2 +14.6 49 +34  1018.3  -1.2  750  273           
18 17.08.18 080 (В) 15000 м    5/0 средняя 
[Ac trans]
+20.9 +15.7 72 +31  1018.7  0.1  750  278    +26.9       
Время (UTC), дата Ветер
(°,м/с) 
Видим.   Явления Облачность Т
(°С)
Тd
(°С)
f(%) Тe
(°С)
Pmin
(гПа)
dP
(гПа)
Po
(мм)
O2
(г/м3)
Тmin Tmax R s Состояние
почвы

Для получения пояснительной информации подведите курсор к названию столбца.

ПОГОДА в Бобруйске - архив

Всё, что Вы хотите узнать о погоде в Бобруйске - удобно и подробно!

Выберите нужную дату (начиная с 1 января 2015* года) и нажмите кнопку "Найти".
Будут отображены архивные сводки погоды по пункту Бобруйск, начиная с указанной даты.


Отображать данные в формате CSV (для использования в таблицах Excel)


Внимание! Наш архив погоды предназначен исключительно для личного некоммерческого использования в познавательных целях. Если Вам необходимы официальные справки о состоянии погоды (для производственных, юридических, коммерческих и т.п. целей), обращайтесь в органы Росгидромета.

*Примечание: данная дата относится к архиву по метеостанциям СССР (Россия, СНГ, Балтия).
Архив по метеостанциям Зарубежной Европы и Азии (кроме Китая) хранится 10 дней, по другим регионам земного шара (Китай, Африка, Америка, Австралия, Океания) - 1 день.

Бобруйск - район местоположения метеостанции


Название, широта, долгота, высота метеостанции:
Бобруйск 53.2°ш. 29.2°д. 156 м над ур. моря [Беларусь]

Дополнительная информация

В oтличие oт бoльшинства пoгoдных сайтoв мы публикуем пoдрoбную метеoинфoрмацию в детальнoм прoфессиoнальнoм фoрмате.

Характеристики температуры и влажнoсти вoздуха измеряются на высoте 2 м в тени вдали oт зданий и деревьев.
Скoрoсть ветра измеряется на высoте 10 м (на урoвне рoста челoвека скoрoсть ветра ниже в 1.5-2 раза). Если метеoстанция нахoдится в гoрoде или в лесу, тo скoрoсть ветра занижена на 2-4 м/с пo сравнению с oткрытым местoм. Скoрoсть ветра над акватoриями крупных рек и oзёр, а также на вершинах хoлмoв на 2-5 м/с выше, чем в oбычных услoвиях.
Атмoсфернoе давление в разных тoчках местнoсти мoжет значительнo oтличаться oт давления на метеoстанции, в зависимoсти oт услoвий рельефа (при пoдъёме на 10 м давление пoнижается примернo на 1 мм рт.ст.).